GW2492 Weather Reports


Display with metric or nautical units.
time (UTC)temp
F
wind
direction
speed
MPH
gust
MPH
rain 1hr
in
rain 24hr
in
rain mn
in
humidity
%
barometer
mb
20260903034551 87 144 5.0 10.0 0.00 0.00 0.00 45 1014.4
20260903033052 88 129 5.0 10.0 0.00 0.00 0.00 43 1014.2
20260903031558 88 113 8.0 14.0 0.00 0.00 0.00 42 1014.1
20260903030057 88 113 7.0 12.0 0.00 0.00 0.00 42 1013.9
20260903024550 89 130 5.0 9.0 0.00 0.00 0.00 41 1013.6
20260903023059 90 119 4.0 10.0 0.00 0.00 0.00 40 1013.6
20260903021607 91 115 7.0 11.0 0.00 0.00 0.00 39 1013.4
20260903020052 91 114 5.0 9.0 0.00 0.00 0.00 39 1013.2
20260903014552 92 98 4.0 8.0 0.00 0.00 0.00 38 1013.1
20260903013104 93 117 5.0 9.0 0.00 0.00 0.00 38 1012.9
20260903011555 95 103 4.0 8.0 0.00 0.00 0.00 36 1012.8
20260903010109 96 98 3.0 7.0 0.00 0.00 0.00 34 1012.7
20260903004559 97 93 3.0 7.0 0.00 0.00 0.00 34 1012.7
20260903003050 98 100 5.0 11.0 0.00 0.00 0.00 33 1012.6
20260903001545 99 94 6.0 12.0 0.00 0.00 0.00 31 1012.6
20260903000106 99 46 2.0 10.0 0.00 0.00 0.00 30 1012.7
20260902234553 99 105 2.0 10.0 0.00 0.00 0.00 30 1012.8
20260902233050 99 83 3.0 9.0 0.00 0.00 0.00 31 1013.0
20260902231550 99 119 6.0 10.0 0.00 0.00 0.00 30 1013.0
20260902230056 99 103 3.0 8.0 0.00 0.00 0.00 31 1013.1
20260902224552 99 113 6.0 14.0 0.00 0.00 0.00 31 1013.1
20260902223051 100 99 4.0 10.0 0.00 0.00 0.00 31 1013.2
20260902221617 100 49 5.0 10.0 0.00 0.00 0.00 31 1013.3
20260902220056 99 69 8.0 13.0 0.00 0.00 0.00 31 1013.4
20260902214557 99 125 6.0 12.0 0.00 0.00 0.00 32 1013.4
20260902213102 100 20 3.0 12.0 0.00 0.00 0.00 32 1013.7
20260902211608 100 191 2.0 9.0 0.00 0.00 0.00 31 1013.9
20260902210100 101 145 5.0 10.0 0.00 0.00 0.00 32 1014.1
20260902204554 98 65 4.0 12.0 0.00 0.00 0.00 32 1014.4
20260902203055 98 105 3.0 9.0 0.00 0.00 0.00 34 1014.4
20260902201624 99 36 2.0 12.0 0.00 0.00 0.00 35 1014.7
20260902200112 98 96 1.0 15.0 0.00 0.00 0.00 36 1014.9
20260902194601 98 62 2.0 11.0 0.00 0.00 0.00 36 1015.1
20260902193056 97 16 4.0 10.0 0.00 0.00 0.00 36 1015.4
20260902191554 97 346 1.0 8.0 0.00 0.00 0.00 37 1015.6
20260902190049 96 192 5.0 11.0 0.00 0.00 0.00 38 1015.9
20260902184556 96 134 8.0 12.0 0.00 0.00 0.00 38 1015.9
20260902183057 96 239 5.0 12.0 0.00 0.00 0.00 39 1016.0
20260902181611 97 257 4.0 11.0 0.00 0.00 0.00 37 1016.3
20260902180059 95 338 1.0 9.0 0.00 0.00 0.00 39 1016.6
20260902174559 94 281 0.0 9.0 0.00 0.00 0.00 42 1017.0
20260902173046 94 205 4.0 11.0 0.00 0.00 0.00 41 1017.2
20260902171610 94 234 1.0 12.0 0.00 0.00 0.00 44 1017.4
20260902170056 93 198 7.0 14.0 0.00 0.00 0.00 46 1017.4
20260902164557 92 182 6.0 12.0 0.00 0.00 0.00 48 1017.5
20260902163049 91 231 7.0 12.0 0.00 0.00 0.00 50 1017.6
20260902161604 91 225 9.0 15.0 0.00 0.00 0.00 52 1017.7
20260902160051 89 239 10.0 14.0 0.00 0.00 0.00 54 1017.8
20260902154607 88 238 10.0 17.0 0.00 0.00 0.00 57 1017.7
20260902153058 87 224 10.0 16.0 0.00 0.00 0.00 58 1017.6
20260902151554 86 224 7.0 14.0 0.00 0.00 0.00 61 1017.6
20260902150054 85 226 7.0 12.0 0.00 0.00 0.00 63 1017.5
20260902144555 83 218 8.0 13.0 0.00 0.00 0.00 64 1017.7
20260902143050 83 231 7.0 13.0 0.00 0.00 0.00 66 1017.7
20260902141547 82 203 10.0 13.0 0.00 0.00 0.00 67 1017.7
20260902140058 80 221 7.0 10.0 0.00 0.00 0.00 69 1017.6
20260902134609 78 250 2.0 5.0 0.00 0.00 0.00 69 1017.6
20260902133059 78 259 3.0 6.0 0.00 0.00 0.00 69 1017.6
20260902131549 77 215 5.0 6.0 0.00 0.00 0.00 71 1017.5
20260902130046 75 255 1.0 3.0 0.00 0.00 0.00 71 1017.3
20260902124601 75 0 0.0 1.0 0.00 0.00 0.00 69 1017.2
20260902123050 75 229 0.0 1.0 0.00 0.00 0.00 69 1017.2
20260902121551 75 0 0.0 2.0 0.00 0.00 0.00 68 1017.1
20260902120058 76 155 0.0 5.0 0.00 0.00 0.00 68 1017.1
20260902114552 76 153 3.0 7.0 0.00 0.00 0.00 67 1016.9
20260902113052 76 145 7.0 9.0 0.00 0.00 0.00 66 1016.9
20260902111549 77 155 7.0 10.0 0.00 0.00 0.00 66 1016.7
20260902110046 77 160 7.0 10.0 0.00 0.00 0.00 65 1016.7
20260902104553 76 155 4.0 9.0 0.00 0.00 0.00 65 1016.7
20260902103057 76 61 2.0 7.0 0.00 0.00 0.00 63 1016.8
20260902101549 78 119 3.0 8.0 0.00 0.00 0.00 62 1016.6
20260902100054 77 180 4.0 8.0 0.00 0.00 0.00 62 1016.4
20260902094556 76 0 2.0 5.0 0.00 0.00 0.00 63 1016.5
20260902093133 78 9 1.0 8.0 0.00 0.00 0.00 60 1016.4
20260902091557 79 165 5.0 8.0 0.00 0.00 0.00 59 1016.3
20260902090058 79 163 4.0 7.0 0.00 0.00 0.00 59 1016.4
20260902084555 78 163 1.0 2.0 0.00 0.00 0.00 59 1016.3
20260902083052 79 156 3.0 7.0 0.00 0.00 0.00 58 1016.3
20260902081612 79 148 3.0 8.0 0.00 0.00 0.00 58 1016.2
20260902080058 79 147 5.0 9.0 0.00 0.00 0.00 58 1016.2
20260902074557 79 154 6.0 8.0 0.00 0.00 0.00 59 1016.2
20260902073051 80 150 6.0 9.0 0.00 0.00 0.00 58 1016.2
20260902071601 80 145 9.0 13.0 0.00 0.00 0.00 57 1016.2
20260902070047 81 155 6.0 10.0 0.00 0.00 0.00 58 1016.2
20260902064546 82 132 7.0 10.0 0.00 0.00 0.00 56 1016.3
20260902063055 82 132 7.0 11.0 0.00 0.00 0.00 56 1016.3
20260902060059 83 140 7.0 12.0 0.00 0.00 0.00 55 1016.4
20260902054547 84 148 10.0 16.0 0.00 0.00 0.00 54 1016.4
20260902053055 84 144 7.0 10.0 0.00 0.00 0.00 54 1016.5
20260902051550 84 141 8.0 11.0 0.00 0.00 0.00 53 1016.5
20260902050104 85 138 8.0 15.0 0.00 0.00 0.00 52 1016.6
20260902044608 85 134 7.0 12.0 0.00 0.00 0.00 52 1016.6
20260902043044 85 127 7.0 11.0 0.00 0.00 0.00 51 1016.6
20260902041552 85 133 6.0 10.0 0.00 0.00 0.00 48 1016.5
20260902040053 86 119 5.0 12.0 0.00 0.00 0.00 47 1016.4